• En España
  • Lista de países
  • Para 7 días
  • Temperatura del agua
  • Mapa Satelital
  • El tiempo en el mapa
  • Informadores
  • user-avatar
    Iniciar sesión

    Tiempo cada hora Portimao

    Hoy, 25 Noviembre, Sábado

    Tiempo Temperatura Precipitaciones Viento Presión Humedad
    00:00 +16°C° 0 mm 3 mps 763 mmHg 82%
    01:00 +16°C° 0 mm 3 mps 763 mmHg 84%
    02:00 +16°C° 0 mm 2 mps 763 mmHg 86%
    03:00 +16°C° 0 mm 2 mps 763 mmHg 87%
    04:00 +16°C° 0 mm 2 mps 763 mmHg 88%
    05:00 +16°C° 0 mm 1 mps 763 mmHg 89%
    06:00 +18°C° 0 mm 1 mps 763 mmHg 85%
    07:00 +19°C° 0 mm 1 mps 764 mmHg 82%
    08:00 +20°C° 0 mm 1 mps 764 mmHg 78%
    09:00 +20°C° 0,1 mm 1 mps 764 mmHg 78%
    10:00 +21°C° 0,1 mm 1 mps 764 mmHg 79%
    11:00 +21°C° 0,1 mm 1 mps 765 mmHg 79%
    12:00 +21°C° 0,1 mm 1 mps 765 mmHg 80%
    13:00 +21°C° 0,1 mm 1 mps 764 mmHg 81%
    14:00 +19°C° 0,1 mm 2 mps 764 mmHg 82%
    15:00 +20°C° 0 mm 1 mps 764 mmHg 83%
    16:00 +19°C° 0 mm 1 mps 764 mmHg 85%
    17:00 +19°C° 0 mm 1 mps 765 mmHg 86%
    18:00 +19°C° 0 mm 1 mps 765 mmHg 86%
    19:00 +19°C° 0 mm 1 mps 765 mmHg 85%
    20:00 +19°C° 0 mm 1 mps 766 mmHg 85%
    21:00 +18°C° 0 mm 1 mps 766 mmHg 86%
    22:00 +18°C° 0 mm 1 mps 766 mmHg 88%
    23:00 +16°C° 0 mm 1 mps 766 mmHg 89%

    Mañana, 26 Noviembre, Domingo

    Tiempo Temperatura Precipitaciones Viento Presión Humedad
    00:00 +16°C° 0 mm 1 mps 766 mmHg 88%
    01:00 +16°C° 0 mm 2 mps 766 mmHg 88%
    02:00 +17°C° 0 mm 2 mps 767 mmHg 87%
    03:00 +16°C° 0 mm 2 mps 767 mmHg 88%
    04:00 +16°C° 0 mm 2 mps 767 mmHg 88%
    05:00 +16°C° 0 mm 3 mps 767 mmHg 89%
    06:00 +17°C° 0 mm 2 mps 767 mmHg 86%
    07:00 +17°C° 0 mm 2 mps 768 mmHg 83%
    08:00 +18°C° 0 mm 2 mps 768 mmHg 80%
    09:00 +20°C° 0 mm 2 mps 768 mmHg 72%
    10:00 +22°C° 0 mm 1 mps 768 mmHg 64%
    11:00 +24°C° 0 mm 1 mps 768 mmHg 55%
    12:00 +24°C° 0 mm 2 mps 768 mmHg 54%
    13:00 +24°C° 0 mm 2 mps 768 mmHg 53%
    14:00 +24°C° 0 mm 2 mps 767 mmHg 51%
    15:00 +23°C° 0 mm 2 mps 767 mmHg 58%
    16:00 +20°C° 0 mm 2 mps 767 mmHg 65%
    17:00 +18°C° 0 mm 2 mps 768 mmHg 71%
    18:00 +18°C° 0 mm 2 mps 768 mmHg 74%
    19:00 +17°C° 0 mm 2 mps 768 mmHg 76%
    20:00 +17°C° 0 mm 2 mps 768 mmHg 78%
    21:00 +17°C° 0 mm 2 mps 768 mmHg 79%
    22:00 +17°C° 0 mm 3 mps 768 mmHg 80%
    23:00 +16°C° 0 mm 3 mps 768 mmHg 80%

    Pasado mañana, 27 Noviembre, Lunes

    Tiempo Temperatura Precipitaciones Viento Presión Humedad
    00:00 +15°C° 0 mm 4 mps 768 mmHg 80%
    01:00 +15°C° 0 mm 4 mps 767 mmHg 79%
    02:00 +15°C° 0 mm 4 mps 767 mmHg 78%
    03:00 +15°C° 0 mm 4 mps 767 mmHg 82%
    04:00 +15°C° 0 mm 4 mps 767 mmHg 86%
    05:00 +15°C° 0 mm 5 mps 767 mmHg 90%
    06:00 +16°C° 0 mm 5 mps 767 mmHg 89%
    07:00 +16°C° 0 mm 5 mps 768 mmHg 87%
    08:00 +17°C° 0 mm 5 mps 768 mmHg 85%
    09:00 +19°C° 0,1 mm 5 mps 768 mmHg 76%
    10:00 +20°C° 0,1 mm 6 mps 768 mmHg 67%
    11:00 +22°C° 0,1 mm 6 mps 768 mmHg 58%
    12:00 +21°C° 0,1 mm 6 mps 767 mmHg 60%
    13:00 +21°C° 0,1 mm 6 mps 767 mmHg 61%
    14:00 +20°C° 0,1 mm 6 mps 766 mmHg 63%
    15:00 +20°C° 0 mm 5 mps 766 mmHg 67%
    16:00 +19°C° 0 mm 5 mps 766 mmHg 70%
    17:00 +17°C° 0 mm 5 mps 765 mmHg 74%
    18:00 +17°C° 0 mm 5 mps 766 mmHg 75%
    19:00 +16°C° 0 mm 5 mps 766 mmHg 76%
    20:00 +16°C° 0 mm 5 mps 766 mmHg 78%
    21:00 +16°C° 0 mm 5 mps 765 mmHg 80%
    22:00 +16°C° 0 mm 6 mps 765 mmHg 83%
    23:00 +16°C° 0 mm 6 mps 765 mmHg 86%

    28 Noviembre, Martes

    Tiempo Temperatura Precipitaciones Viento Presión Humedad
    00:00 +16°C° 0,2 mm 6 mps 764 mmHg 87%
    01:00 +16°C° 0,2 mm 5 mps 764 mmHg 88%
    02:00 +16°C° 0,2 mm 5 mps 763 mmHg 90%
    03:00 +16°C° 0,2 mm 5 mps 763 mmHg 90%
    04:00 +16°C° 0,2 mm 5 mps 762 mmHg 91%
    05:00 +16°C° 0,2 mm 5 mps 762 mmHg 91%
    06:00 +16°C° 0,1 mm 6 mps 762 mmHg 90%
    07:00 +17°C° 0,1 mm 6 mps 762 mmHg 88%
    08:00 +17°C° 0,1 mm 6 mps 761 mmHg 87%
    09:00 +19°C° 0,5 mm 6 mps 761 mmHg 84%
    10:00 +20°C° 0,5 mm 6 mps 761 mmHg 82%
    11:00 +20°C° 0,5 mm 6 mps 760 mmHg 79%
    12:00 +20°C° 1,1 mm 5 mps 760 mmHg 80%
    13:00 +20°C° 1,1 mm 5 mps 759 mmHg 80%
    14:00 +20°C° 1,1 mm 4 mps 758 mmHg 80%
    15:00 +20°C° 0,7 mm 4 mps 758 mmHg 84%
    16:00 +19°C° 0,7 mm 4 mps 757 mmHg 88%
    17:00 +18°C° 0,7 mm 3 mps 757 mmHg 92%
    18:00 +18°C° 0,6 mm 4 mps 757 mmHg 93%
    19:00 +17°C° 0,6 mm 5 mps 757 mmHg 93%
    20:00 +17°C° 0,6 mm 5 mps 757 mmHg 94%
    21:00 +17°C° 0,6 mm 5 mps 756 mmHg 95%
    22:00 +17°C° 0,6 mm 6 mps 756 mmHg 96%
    23:00 +17°C° 0,6 mm 6 mps 755 mmHg 96%

    29 Noviembre, Miércoles

    Tiempo Temperatura Precipitaciones Viento Presión Humedad
    00:00 +17°C° 1,2 mm 7 mps 755 mmHg 94%
    01:00 +17°C° 1,2 mm 7 mps 754 mmHg 93%
    02:00 +17°C° 1,2 mm 7 mps 754 mmHg 91%
    03:00 +17°C° 0,4 mm 7 mps 754 mmHg 92%
    04:00 +17°C° 0,4 mm 7 mps 753 mmHg 93%
    05:00 +17°C° 0,4 mm 7 mps 753 mmHg 94%
    06:00 +17°C° 0,4 mm 7 mps 753 mmHg 92%
    07:00 +17°C° 0,4 mm 7 mps 753 mmHg 91%
    08:00 +17°C° 0,4 mm 7 mps 754 mmHg 89%
    09:00 +18°C° 0,1 mm 7 mps 754 mmHg 84%
    10:00 +20°C° 0,1 mm 7 mps 754 mmHg 80%
    11:00 +20°C° 0,1 mm 7 mps 754 mmHg 75%
    12:00 +20°C° 0 mm 7 mps 754 mmHg 74%
    13:00 +18°C° 0 mm 7 mps 753 mmHg 73%
    14:00 +19°C° 0 mm 6 mps 753 mmHg 71%
    15:00 +17°C° 0 mm 6 mps 754 mmHg 76%
    16:00 +15°C° 0 mm 6 mps 754 mmHg 80%
    17:00 +14°C° 0 mm 6 mps 754 mmHg 85%
    18:00 +13°C° 0 mm 6 mps 755 mmHg 88%
    19:00 +13°C° 0 mm 5 mps 755 mmHg 90%
    20:00 +12°C° 0 mm 5 mps 756 mmHg 93%
    21:00 +10°C° 0 mm 5 mps 756 mmHg 92%
    22:00 +10°C° 0 mm 5 mps 756 mmHg 92%
    23:00 +10°C° 0 mm 4 mps 757 mmHg 91%

    30 Noviembre, Jueves

    Tiempo Temperatura Precipitaciones Viento Presión Humedad
    00:00 +10°C° 0 mm 4 mps 757 mmHg 91%
    01:00 +10°C° 0 mm 4 mps 757 mmHg 90%
    02:00 +8°C° 0 mm 4 mps 757 mmHg 90%
    03:00 +8°C° 0 mm 4 mps 757 mmHg 91%
    04:00 +8°C° 0 mm 4 mps 758 mmHg 92%
    05:00 +7°C° 0 mm 4 mps 758 mmHg 92%
    06:00 +8°C° 0 mm 5 mps 758 mmHg 88%
    07:00 +8°C° 0 mm 5 mps 759 mmHg 84%
    08:00 +9°C° 0 mm 5 mps 760 mmHg 80%
    09:00 +12°C° 0 mm 5 mps 760 mmHg 68%
    10:00 +13°C° 0 mm 4 mps 761 mmHg 56%
    11:00 +15°C° 0 mm 4 mps 761 mmHg 44%
    12:00 +15°C° 0 mm 4 mps 761 mmHg 43%
    13:00 +15°C° 0 mm 4 mps 761 mmHg 41%
    14:00 +15°C° 0 mm 4 mps 761 mmHg 40%
    15:00 +14°C° 0 mm 4 mps 762 mmHg 44%
    16:00 +12°C° 0 mm 4 mps 762 mmHg 49%
    17:00 +11°C° 0 mm 4 mps 763 mmHg 53%
    18:00 +10°C° 0 mm 4 mps 763 mmHg 52%
    19:00 +8°C° 0 mm 4 mps 764 mmHg 52%
    20:00 +7°C° 0 mm 4 mps 764 mmHg 51%
    21:00 +7°C° 0 mm 4 mps 764 mmHg 53%
    22:00 +6°C° 0 mm 4 mps 765 mmHg 54%
    23:00 +7°C° 0 mm 3 mps 765 mmHg 56%
    Mostrar más